Location: Faucoucourt
(49.5333°N, 3.4667°E)
Time: 07:03:59
(UTC+00:00)

Daily predictions for brighter satellites

Satellite Brightness Start Highest point End
(mag) Time Altitude Azimuth Time Altitude Azimuth Time Altitude Azimuth
PAYLOAD B 4.2 17:54:28 10° SSE 17:59:58 79° ENE 18:05:30 10° NNW
Cosmos 1140 Rocket 4.4 17:55:05 10° SW 18:00:06 53° WNW 18:05:10 10° NNE
Cosmos 468 Rocket 4.0 17:55:45 10° NNW 18:00:55 79° ENE 18:06:05 10° SSE
Okean O Rocket 2.1 17:57:10 10° SE 18:01:13 39° ENE 18:05:18 10° N
Cosmos 2297 Rocket 3.4 17:56:21 10° NW 18:01:47 48° WSW 18:07:12 10° S
SJ-6B 4.5 18:02:43 10° E 18:04:56 15° ENE 18:07:10 10° NNE
Cosmos 1980 Rocket 2.9 18:00:10 10° SSE 18:05:06 32° ESE 18:10:02 10° NE
ATLAS 2AS CENTAUR R/B 4.2 18:00:34 10° W 18:07:32 37° NNW 18:14:12 10° NE
ASTEX 1 3.5 18:03:06 10° NNE 18:08:02 61° E 18:12:58 10° S
SKYMED 3 4.4 18:04:45 10° NNE 18:08:54 77° ESE 18:13:01 10° S
NOSS 2-2 (C) 4.5 18:04:13 10° NW 18:09:03 74° SW 18:15:53 10° SSE
Cosmos 2369 4.2 18:05:15 10° S 18:10:28 38° ESE 18:15:43 10° NE
Cosmos 1626 2.2 18:07:20 10° NNW 18:10:59 82° W 18:14:36 10° S
USA 229 DEB 4.0 18:06:04 10° NW 18:13:24 90° NE 18:21:17 10° SE
USA 229 4.0 18:06:09 10° NW 18:13:30 89° NE 18:21:23 10° SE
Cosmos 540 Rocket 3.4 18:10:38 10° NNW 18:15:46 77° ENE 18:20:53 10° SSE
Cosmos 1674 Rocket 4.0 18:14:25 10° N 18:18:34 39° ENE 18:22:43 10° SE
YAOGAN 1 2.5 18:15:12 10° SSE 18:19:29 69° ENE 18:23:48 10° N
SKYMED 2 3.9 18:15:19 10° N 18:19:40 72° WNW 18:23:59 10° SSW
Cosmos 1850 Rocket 4.4 18:18:00 10° S 18:22:48 39° ESE 18:27:40 10° NE
SL-16 R/B 3.8 18:20:42 10° ESE 18:22:52 12° E 18:25:03 10° ENE
Cosmos 841 Rocket 3.5 18:17:44 10° NNW 18:22:54 60° ENE 18:27:59 10° SE
SL-4 R/B 2.4 18:18:38 10° WNW 18:23:02 69° N 18:27:05 14° E
Cosmos 1437 Rocket 4.4 18:24:58 14° E 18:24:58 14° E 18:26:50 10° NE
OBJECT-B 1.7 18:25:24 17° E 18:26:21 20° ENE 18:28:22 10° NNE
Cosmos 1954 Rocket 4.3 18:24:46 10° SSW 18:29:56 73° WNW 18:35:07 10° NNE
Cosmos 1844 Rocket 4.2 18:26:53 10° N 18:31:02 20° NE 18:34:20 13° ENE
Cosmos 1763 Rocket 4.4 18:26:50 10° NNW 18:31:45 51° WSW 18:36:39 10° S
Cosmos 2279 Rocket 4.0 18:26:00 10° N 18:32:18 90° W 18:38:34 10° S
Meteor 2-10 4.3 18:26:59 10° S 18:32:28 53° E 18:37:51 10° NNE
H-2A R/B 4.1 18:32:31 14° ENE 18:33:24 14° ENE 18:35:34 10° NNE
ISS -3.8 18:31:04 10° WNW 18:34:27 88° N 18:36:41 20° ESE
Cosmos 2180 Rocket 4.5 18:29:08 10° N 18:35:22 75° E 18:41:40 10° SSE
Cosmos 2221 Rocket 3.6 18:30:58 10° N 18:35:30 77° E 18:40:02 10° SSE
Cosmos 2219 4.3 18:32:29 10° NW 18:37:59 47° WSW 18:43:27 10° S
SL-14 R/B 3.2 18:35:51 10° N 18:39:48 74° ENE 18:43:46 10° SSE
Aureole 1 4.2 18:38:31 10° SSW 18:41:31 89° WNW 18:44:55 10° NNE
Meteor 2-5 Rocket 4.3 18:37:22 10° N 18:42:25 34° ENE 18:46:13 16° SE
Cosmos 1975 Rocket 4.5 18:39:19 10° NNE 18:42:37 20° ENE 18:43:38 18° E
IRIDIUM 104 4.4 18:37:41 10° SSE 18:42:45 54° E 18:47:51 10° NNE
Resurs 01 Rocket 3.3 18:42:04 15° ENE 18:43:00 16° ENE 18:45:45 10° NNE
HJ-1C 3.6 18:40:18 10° S 18:43:23 65° WSW 18:46:31 10° NNW
NOSS 7 (H) 4.4 18:44:14 10° NW 18:47:24 78° NE 18:50:04 20° SE
Cosmos 1805 3.2 18:44:10 10° S 18:48:03 89° E 18:51:58 10° N
Cosmos 2227 4.5 18:42:38 10° NNW 18:48:08 49° NE 18:52:01 19° ESE
Cosmos 1378 Rocket 3.4 18:44:06 10° N 18:48:32 76° E 18:52:53 10° SSE
Cosmos 2263 Rocket 2.2 18:43:06 10° NNW 18:48:50 76° ENE 18:54:19 11° SE
USA 186 2.2 18:49:21 23° SE 18:50:57 42° ENE 18:54:06 10° N
Cosmos 1741 Rocket 4.0 18:45:48 10° S 18:51:01 63° ESE 18:56:14 10° NNE
USA 215 3.8 18:45:15 10° ENE 18:51:38 57° NNW 18:58:00 10° W
IRIDIUM 114 4.3 18:46:44 10° S 18:51:53 65° E 18:57:04 10° N
IGS 5A 3.7 18:53:35 19° SE 18:56:13 46° ENE 19:00:12 10° N
Cosmos 2082 4.3 18:52:01 10° NW 18:57:40 59° WSW 19:03:17 10° S
Cosmos 1733 Rocket 3.5 18:55:42 10° SSW 19:00:06 67° WNW 19:04:34 10° N
Cosmos 1766 3.2 18:56:40 10° S 19:00:30 60° E 19:04:25 10° NNE
IRIDIUM 103 4.2 18:55:49 10° S 19:01:01 77° E 19:06:16 10° N
Meteor 2-14 Rocket 4.3 18:55:14 10° S 19:01:18 80° E 19:07:23 10° NNE
Cosmos 1242 Rocket 3.5 18:59:24 10° SSW 19:02:52 49° WNW 19:06:21 10° N
Cosmos 1814 Rocket 4.0 18:58:07 10° NNW 19:03:24 68° ENE 19:07:02 20° SE
Okean-O 2.7 19:00:42 21° SE 19:03:31 54° ENE 19:07:50 10° N
Cosmos 1726 2.0 19:02:09 10° S 19:05:47 89° ESE 19:09:28 10° N
Resurs 1-3 3.9 19:05:38 28° SE 19:07:34 47° ENE 19:11:47 10° N
Cosmos 1697 Rocket 3.6 19:03:39 10° SW 19:09:06 51° NW 19:14:37 10° NNE
CSL-04 Debris 4.1 19:06:24 10° SSE 19:11:49 80° ENE 19:17:14 10° NNW
Cosmos 2084 3.3 19:11:34 10° SW 19:15:23 70° NW 19:18:22 16° NE
USA-17 4.4 19:12:42 10° NW 19:15:54 77° NE 19:16:45 49° ESE
IRS-1C Rocket 4.0 19:12:09 19° SSE 19:15:55 68° ENE 19:21:10 10° N
Meteor 2-21 Rocket 4.3 19:11:07 10° S 19:17:09 75° E 19:23:11 10° NNE
IRIDIUM 106 4.5 19:14:06 10° S 19:19:19 77° W 19:24:34 10° N
USA 281 4.5 19:20:06 20° ENE 19:22:26 25° NE 19:27:31 10° N
Cosmos 489 Rocket 4.4 19:16:34 10° S 19:22:51 69° ESE 19:29:09 10° NNE
SPOT 1/Viking Rocket 4.1 19:22:41 35° E 19:23:42 38° ENE 19:28:27 10° N
Cosmos 1470 3.5 19:28:31 36° NE 19:28:31 36° NE 19:31:07 10° NNE
CZ-4 R/B 3.2 19:25:18 10° SSW 19:29:04 33° W 19:32:51 10° NNW
CRYOSAT 2 4.2 19:29:50 24° SSE 19:32:49 78° E 19:37:44 10° N
Cosmos 2285 Rocket 4.0 19:26:33 10° NNW 19:32:55 83° WSW 19:37:15 22° SSE
MINOTAUR IV R/B 4.4 19:29:03 10° SSW 19:33:35 83° ESE 19:38:07 10° NNE
Meteor 2-16 Rocket 4.4 19:28:52 10° S 19:35:00 86° E 19:41:12 10° N
Meteor 1-12 Rocket 4.4 19:29:16 10° SSW 19:35:15 85° W 19:41:20 10° NNE
Gbstr 26 Del rocket 4.5 19:27:37 10° SW 19:35:16 65° SSE 19:40:02 27° ENE
deb Chang Zheng 4 3.4 19:35:02 60° E 19:35:18 62° ENE 19:39:24 10° N
Okean O Rocket 3.8 19:34:04 10° SSW 19:37:41 25° W 19:41:20 10° NW
SJ-6B 3.3 19:37:27 29° SSW 19:39:06 55° W 19:42:48 10° NNW
BREEZE M DEB (TANK) 4.0 19:35:01 10° SW 19:38:08 22° S 19:38:08 22° S
Cosmos 2322 Rocket 4.2 19:43:56 13° NE 19:43:56 13° NE 19:44:34 10° NE
Cosmos 2026 Rocket 3.8 19:33:42 10° S 19:39:40 64° E 19:45:40 10° NNE
BREEZE-M DEB (TANK) 4.4 19:37:45 10° WSW 19:39:53 22° SSW 19:39:57 22° SSW
JB-3 4.2 19:37:13 10° NNE 19:41:20 84° ESE 19:42:18 51° S
CSL-04 Rocket 3.9 19:38:43 16° S 19:42:58 67° WSW 19:48:21 10° NNW
Cosmos 1553 Rocket 4.2 19:36:56 10° N 19:43:05 50° ENE 19:44:27 43° ESE
Cosmos 1908 Rocket 3.8 19:39:05 10° SSW 19:43:23 66° WNW 19:47:43 10° N
Nadezhda 4 Rocket 4.4 19:40:05 10° SSW 19:46:21 64° WNW 19:52:39 10° N
MetOp-A 3.4 19:48:59 65° NNE 19:48:59 65° NNE 19:52:23 10° NNW
Cosmos 1980 Rocket 3.1 19:43:27 10° SW 19:48:54 49° NW 19:54:22 10° NNE
Cosmos 968 Rocket 3.3 19:45:30 10° SSW 19:50:44 73° ESE 19:55:59 10° NNE
Cosmos 1782 Rocket 3.3 19:50:49 82° E 19:50:49 82° E 19:55:12 10° NNE
Landsat 5 4.3 19:49:57 10° N 19:54:22 55° WNW 19:58:44 10° SSW
OBJECT-B 3.2 19:56:15 15° W 19:56:25 15° W 19:58:05 10° NW
Meteor 1-24 Rocket 3.7 19:53:11 10° NNW 19:58:29 73° W 20:00:31 38° S
Landsat 7 4.1 19:58:02 40° SSW 19:59:36 63° W 20:04:18 10° NNW
ATLAS 2AS CENTAUR R/B 4.4 19:54:27 10° NW 20:00:35 26° N 20:05:21 14° NE
Cosmos 1437 Rocket 3.3 20:00:08 48° WSW 20:00:39 53° WNW 20:04:19 10° N
Spot 2 4.2 20:01:39 63° N 20:01:39 63° N 20:05:16 10° NNW
Ariane Rocket 3.3 20:02:33 49° NE 20:02:33 49° NE 20:07:00 10° N
Cosmos 2278 4.0 19:56:29 10° SW 20:02:08 66° WNW 20:07:49 10° NNE
SL-4 R/B 2.5 19:58:07 10° WNW 20:02:29 64° SW 20:02:29 64° SW
SL-16 R/B 2.0 20:00:18 10° SSW 20:05:56 72° ESE 20:11:37 10° NNE
ERS-1 Rocket 4.5 20:07:59 24° NE 20:07:59 24° NE 20:10:49 10° N
H-2A R/B 2.9 20:08:58 57° NW 20:08:58 57° NW 20:12:16 10° NNW
Meteor 1-22 Rocket 4.3 20:03:51 10° SSW 20:09:12 73° WNW 20:14:48 10° N
ISS -1.3 20:08:06 10° W 20:09:34 19° WSW 20:09:34 19° WSW
MOS 1 4.2 20:10:29 65° SSE 20:11:24 90° WSW 20:17:07 10° NNW
Cosmos 1025 Rocket 3.5 20:11:00 10° NNW 20:14:56 59° WNW 20:14:56 59° WNW
Cosmos 1844 Rocket 2.5 20:10:09 10° NNW 20:15:52 79° ENE 20:16:00 79° E
Cosmos 2278 Rocket 3.9 20:13:20 10° N 20:17:23 19° NE 20:17:26 19° NE
Resurs 01 Rocket 2.0 20:19:37 60° NW 20:19:37 60° NW 20:23:24 10° NNW
Cosmos 1975 Rocket 3.7 20:16:28 10° NNW 20:20:46 51° W 20:20:46 51° W
Terra 3.7 20:23:50 21° NNE 20:23:50 21° NNE 20:25:49 10° N
Cosmos 1092 Rocket 4.5 20:16:07 10° SSW 20:22:21 60° WNW 20:28:34 10° N
SPOT 5 4.2 20:32:25 31° NNE 20:32:25 31° NNE 20:35:09 10° N
Cosmos 1943 Rocket 4.5 20:29:47 10° N 20:31:43 12° NNE 20:32:30 11° NE
Cosmos 2263 Rocket 4.4 20:28:05 10° NW 20:32:08 20° W 20:36:03 10° SW
USA 215 4.0 20:31:46 34° NE 20:34:05 47° N 20:40:17 10° WNW
Cosmos 1844 3.7 20:28:39 10° NNW 20:33:42 74° NNW 20:33:42 74° NNW
S3M 4.0 20:45:16 10° N 20:50:54 73° NNW 20:50:54 73° NNW
Cosmos 2360 Rocket 4.5 21:02:36 14° NNE 21:02:36 14° NNE 21:03:17 10° NNE
USA 281 3.3 21:06:58 70° N 21:06:58 70° N 21:12:45 10° NNW
Cosmos 2322 Rocket 3.7 21:25:40 31° N 21:25:40 31° N 21:28:53 10° NNE
SL-16 R/B 4.1 21:45:52 10° W 21:50:37 26° NW 21:55:22 10° NNE
ATLAS 2AS CENTAUR R/B 3.8 21:46:44 10° NW 21:52:45 39° NNE 21:52:45 39° NNE
Terra 4.4 22:02:43 17° NNW 22:02:43 17° NNW 22:03:56 10° NNW
Cosmos 2278 Rocket 4.0 21:56:46 10° NNW 21:59:16 27° NNW 21:59:16 27° NNW
USA 215 4.3 22:19:07 39° NW 22:19:07 39° NW 22:23:06 10° WNW
Cosmos 1943 Rocket 4.3 22:12:03 10° NNW 22:14:00 20° N 22:14:00 20° N
Cosmos 2360 Rocket 4.5 22:44:19 19° NNW 22:44:19 19° NNW 22:46:48 10° NNE
